632  
ASUS42 KFFC 212010  
RWRGA  
WEATHER ROUNDUP FOR GEORGIA  
NATIONAL WEATHER SERVICE PEACHTREE CITY GA  
300 PM EST SUN JAN 21 2018  
 
NOTE: "FAIR" INDICATES FEW OR NO CLOUDS BELOW 12,000 FEET WITH NO  
SIGNIFICANT WEATHER AND/OR S TO VISIBILITY
.  
 
* = USE WITH CAUTION. THE STATIONS MARKED WITH AN ASTERISK MAY NOT  
REPORT WEATHER SUCH AS PRECIPITATION, FOG, OR THUNDER AND ARE NOT  
QUALITY CONTROLLED BY NWS.  
 
THE REMARK "TC" DENOTES TEMPERATURE READING IN DEGREES CELSIUS.  
 
GAZ001>058-212100-  
NORTH GEORGIA  
 
CITY SKY/WX TMP DP RH WIND PRES REMARKS
 
ATLANTA FAIR 68 45 43 S8 30.19F  
ATHENS FAIR 71 43 36 VRB3 30.18F  
CHAMBLEE FAIR 66 42 41 VRB3 30.18F  
PEACHTREE CITY FAIR 71 43 36 CALM 30.19F  
ROME FAIR 69 43 38 VRB6 30.15F  
WEST ATLANTA FAIR 68 44 42 S3 30.18F  
GAINESVILLE FAIR 67 43 41 SW8 30.19F  
CARTERSVILLE FAIR 69 44 40 SE8 30.17F  
 
 
CITY SKY/WX TMP DP RH WIND PRES REMARKS
 
DALTON* FAIR 64 43 45 S6 30.18F  
LAWRENCEVILLE* FAIR 68 44 42 S7 30.19F  
MARIETTA FAIR 67 42 39 S8 30.18F  
KENNESAW* SUNNY 66 43 42 S6 30.18F  
CANTON* FAIR 68 43 40 S3 30.18F  
BLAIRSVILLE* FAIR 63 42 46 CALM 30.18F  

 
 
GAZ059>098-102>109-212100-  
CENTRAL GEORGIA  
 
CITY SKY/WX TMP DP RH WIND PRES REMARKS
 
AUGUSTA-BUSH FAIR 71 43 36 CALM 30.18F  
AUGUSTA-DANIEL FAIR 71 42 35 CALM 30.19F  
COLUMBUS FAIR 69 42 37 E5 30.17F  
MACON FAIR 69 40 34 CALM 30.19F  
ROBINS AFB SUNNY 69 40 34 CALM 30.18F HAZE  
 
 
CITY SKY/WX TMP DP RH WIND PRES REMARKS
 
LAGRANGE* FAIR 72 45 38 S6 30.17F  
SYLVANIA* FAIR 69 46 42 CALM 30.21F  
MILLEDGEVILLE* FAIR 70 43 37 E5 30.19F  

 
 
GAZ099>101-110>166-212100-  
SOUTH GEORGIA  
 
CITY SKY/WX TMP DP RH WIND PRES REMARKS
 
SAVANNAH FAIR 71 40 32 VRB5 30.20F  
VALDOSTA FAIR 71 38 29 VRB3 30.19F  
ALMA FAIR 69 40 34 CALM 30.19F  
ST SIMONS FAIR 61 34 36 E8 30.21F  
FT STEWART FAIR 70 41 34 CALM 30.18F  
ALBANY FAIR 69 42 37 VRB5 30.20F  
HUNTER AFB FAIR 67 42 39 SE9 30.18S  
MOODY AFB FAIR 70 35 28 S3 30.18F  
BRUNSWICK FAIR 64 34 32 SE10 30.21S  
 
 
CITY SKY/WX TMP DP RH WIND PRES REMARKS
 
BAINBRIDGE* N/A 72 45 37 E6 30.18F  
MOULTRIE* FAIR 68 39 34 E3 30.20F  
VIDALIA* FAIR 72 43 35 CALM 30.19F  
WAYCROSS* FAIR 69 32 25 CALM 30.19F  
DOUGLAS* FAIR 68 39 34 SE3 30.20F  

 
 
 
CLICK HERE TO GO TO PREVIOUS BULLETINS.

The Nexlab GA Page Main Text Page